| time (UTC) | temp F | wind direction | speed MPH | gust MPH | rain 1hr in | rain 24hr in | rain mn in | humidity % | barometer mb |
| 20260903202702 | 46 | 157 | 2.0 | 5.0 | 0.00 | 0.04 | 0.00 | 78 | 1018.2 |
| 20260903201802 | 46 | 157 | 1.0 | 5.0 | 0.00 | 0.04 | 0.00 | 78 | 1018.2 |
| 20260903200902 | 46 | 157 | 1.0 | 5.0 | 0.00 | 0.04 | 0.00 | 78 | 1018.1 |
| 20260903200002 | 46 | 157 | 1.0 | 4.0 | 0.00 | 0.04 | 0.00 | 78 | 1018.2 |
| 20260903195402 | 46 | 157 | 2.0 | 5.0 | 0.00 | 0.04 | 0.00 | 78 | 1018.1 |
| 20260903194501 | 47 | 157 | 3.0 | 5.0 | 0.00 | 0.04 | 0.00 | 78 | 1018.2 |
| 20260903193602 | 47 | 157 | 3.0 | 9.0 | 0.00 | 0.04 | 0.00 | 78 | 1018.3 |
| 20260903192702 | 47 | 157 | 3.0 | 10.0 | 0.00 | 0.04 | 0.00 | 79 | 1018.3 |
| 20260903191802 | 46 | 157 | 3.0 | 8.0 | 0.00 | 0.04 | 0.00 | 79 | 1018.3 |
| 20260903190902 | 46 | 157 | 2.0 | 6.0 | 0.00 | 0.04 | 0.00 | 80 | 1018.3 |
| 20260903190023 | 46 | 157 | 2.0 | 8.0 | 0.00 | 0.04 | 0.00 | 80 | 1018.3 |
| 20260903185402 | 47 | 157 | 2.0 | 6.0 | 0.00 | 0.04 | 0.00 | 80 | 1018.2 |
| 20260903184501 | 47 | 157 | 2.0 | 6.0 | 0.00 | 0.04 | 0.00 | 80 | 1018.2 |
| 20260903183601 | 47 | 157 | 2.0 | 6.0 | 0.00 | 0.04 | 0.00 | 80 | 1018.2 |
| 20260903182702 | 47 | 157 | 2.0 | 5.0 | 0.00 | 0.04 | 0.00 | 80 | 1018.2 |
| 20260903181802 | 47 | 157 | 2.0 | 5.0 | 0.00 | 0.04 | 0.00 | 80 | 1018.2 |
| 20260903180901 | 47 | 157 | 2.0 | 5.0 | 0.00 | 0.04 | 0.00 | 81 | 1018.1 |
| 20260903180023 | 47 | 157 | 1.0 | 6.0 | 0.00 | 0.04 | 0.00 | 81 | 1018.1 |
| 20260903175402 | 47 | 157 | 2.0 | 5.0 | 0.00 | 0.04 | 0.00 | 81 | 1018.1 |
| 20260903174523 | 47 | 157 | 2.0 | 5.0 | 0.00 | 0.04 | 0.00 | 81 | 1018.0 |
| 20260903173601 | 48 | 157 | 2.0 | 5.0 | 0.00 | 0.04 | 0.00 | 81 | 1018.1 |
| 20260903172701 | 48 | 157 | 1.0 | 5.0 | 0.00 | 0.04 | 0.00 | 81 | 1018.1 |
| 20260903171801 | 48 | 157 | 1.0 | 4.0 | 0.00 | 0.04 | 0.00 | 81 | 1018.2 |
| 20260903170901 | 48 | 157 | 1.0 | 4.0 | 0.00 | 0.04 | 0.00 | 81 | 1018.3 |
| 20260903170001 | 48 | 157 | 1.0 | 4.0 | 0.00 | 0.04 | 0.00 | 81 | 1018.5 |
| 20260903165402 | 48 | 157 | 1.0 | 3.0 | 0.00 | 0.04 | 0.00 | 81 | 1018.4 |
| 20260903164501 | 48 | 157 | 1.0 | 5.0 | 0.00 | 0.04 | 0.00 | 82 | 1018.5 |
| 20260903163623 | 48 | 157 | 2.0 | 5.0 | 0.00 | 0.04 | 0.00 | 82 | 1018.5 |
| 20260903162701 | 48 | 157 | 1.0 | 5.0 | 0.00 | 0.04 | 0.00 | 82 | 1018.5 |
| 20260903161801 | 48 | 157 | 2.0 | 4.0 | 0.00 | 0.04 | 0.00 | 82 | 1018.7 |
| 20260903160902 | 48 | 157 | 2.0 | 5.0 | 0.00 | 0.04 | 0.00 | 82 | 1018.8 |
| 20260903160001 | 49 | 157 | 2.0 | 4.0 | 0.00 | 0.04 | 0.00 | 82 | 1018.9 |
| 20260903155402 | 49 | 157 | 2.0 | 4.0 | 0.00 | 0.04 | 0.00 | 82 | 1018.9 |
| 20260903154501 | 49 | 157 | 2.0 | 6.0 | 0.00 | 0.04 | 0.00 | 82 | 1018.9 |
| 20260903153601 | 49 | 157 | 2.0 | 5.0 | 0.00 | 0.04 | 0.00 | 82 | 1019.1 |
| 20260903152701 | 48 | 157 | 2.0 | 6.0 | 0.00 | 0.04 | 0.00 | 83 | 1019.1 |
| 20260903151801 | 48 | 157 | 1.0 | 4.0 | 0.00 | 0.04 | 0.00 | 83 | 1019.1 |
| 20260903150901 | 48 | 157 | 2.0 | 5.0 | 0.00 | 0.04 | 0.00 | 83 | 1019.1 |
| 20260903150002 | 48 | 157 | 2.0 | 4.0 | 0.00 | 0.04 | 0.00 | 83 | 1019.2 |
| 20260903145422 | 48 | 157 | 2.0 | 4.0 | 0.00 | 0.04 | 0.00 | 84 | 1019.2 |
| 20260903144501 | 48 | 157 | 1.0 | 5.0 | 0.00 | 0.04 | 0.00 | 84 | 1019.2 |
| 20260903143601 | 48 | 157 | 1.0 | 4.0 | 0.00 | 0.04 | 0.00 | 84 | 1019.2 |
| 20260903142701 | 48 | 157 | 1.0 | 4.0 | 0.00 | 0.04 | 0.00 | 83 | 1019.2 |
| 20260903141801 | 48 | 157 | 1.0 | 4.0 | 0.00 | 0.04 | 0.00 | 84 | 1019.1 |
| 20260903140901 | 48 | 157 | 1.0 | 4.0 | 0.00 | 0.04 | 0.00 | 84 | 1019.2 |
| 20260903140002 | 48 | 157 | 1.0 | 2.0 | 0.00 | 0.04 | 0.00 | 84 | 1019.4 |
| 20260903135401 | 48 | 157 | 0.0 | 2.0 | 0.00 | 0.04 | 0.04 | 83 | 1019.4 |
| 20260903134522 | 48 | 157 | 0.0 | 2.0 | 0.00 | 0.04 | 0.04 | 83 | 1019.4 |
| 20260903133623 | 48 | 157 | 0.0 | 3.0 | 0.00 | 0.04 | 0.04 | 83 | 1019.3 |
| 20260903132701 | 48 | 0 | 0.0 | 2.0 | 0.00 | 0.04 | 0.04 | 82 | 1019.3 |
| 20260903131802 | 49 | 0 | 0.0 | 3.0 | 0.00 | 0.04 | 0.04 | 82 | 1019.4 |
| 20260903130901 | 49 | 157 | 1.0 | 2.0 | 0.00 | 0.04 | 0.04 | 82 | 1019.4 |
| 20260903130001 | 49 | 157 | 1.0 | 3.0 | 0.00 | 0.04 | 0.04 | 82 | 1019.4 |
| 20260903125401 | 49 | 157 | 1.0 | 3.0 | 0.00 | 0.04 | 0.04 | 82 | 1019.5 |
| 20260903124501 | 49 | 157 | 1.0 | 4.0 | 0.00 | 0.04 | 0.04 | 82 | 1019.3 |
| 20260903123601 | 49 | 157 | 1.0 | 4.0 | 0.00 | 0.04 | 0.04 | 83 | 1019.3 |
| 20260903122701 | 48 | 0 | 0.0 | 2.0 | 0.00 | 0.04 | 0.04 | 81 | 1019.3 |
| 20260903121801 | 48 | 0 | 0.0 | 0.0 | 0.00 | 0.04 | 0.04 | 80 | 1019.3 |
| 20260903120901 | 49 | 0 | 0.0 | 2.0 | 0.00 | 0.04 | 0.04 | 79 | 1019.2 |
| 20260903120001 | 49 | 0 | 0.0 | 2.0 | 0.00 | 0.04 | 0.04 | 78 | 1019.1 |
| 20260903115401 | 49 | 0 | 0.0 | 0.0 | 0.00 | 0.04 | 0.04 | 78 | 1019.1 |
| 20260903114501 | 50 | 157 | 0.0 | 1.0 | 0.00 | 0.04 | 0.04 | 78 | 1019.1 |
| 20260903113601 | 50 | 157 | 1.0 | 3.0 | 0.00 | 0.04 | 0.04 | 77 | 1019.1 |
| 20260903112701 | 50 | 157 | 1.0 | 3.0 | 0.00 | 0.04 | 0.04 | 77 | 1018.8 |
| 20260903111801 | 50 | 157 | 2.0 | 9.0 | 0.00 | 0.04 | 0.04 | 77 | 1018.6 |
| 20260903110901 | 50 | 157 | 2.0 | 6.0 | 0.00 | 0.04 | 0.04 | 78 | 1018.8 |
| 20260903110022 | 51 | 157 | 2.0 | 5.0 | 0.00 | 0.04 | 0.04 | 78 | 1018.6 |
| 20260903105401 | 51 | 157 | 2.0 | 8.0 | 0.00 | 0.04 | 0.04 | 78 | 1018.5 |
| 20260903104501 | 50 | 157 | 2.0 | 8.0 | 0.00 | 0.04 | 0.04 | 78 | 1018.4 |
| 20260903103602 | 50 | 157 | 1.0 | 4.0 | 0.00 | 0.04 | 0.04 | 78 | 1018.2 |
| 20260903102701 | 50 | 157 | 2.0 | 5.0 | 0.00 | 0.04 | 0.04 | 78 | 1018.1 |
| 20260903101801 | 50 | 157 | 1.0 | 4.0 | 0.00 | 0.04 | 0.04 | 78 | 1017.9 |
| 20260903095404 | 51 | 157 | 0.0 | 3.0 | 0.00 | 0.04 | 0.04 | 76 | 1017.6 |
| 20260903094504 | 51 | 157 | 1.0 | 3.0 | 0.00 | 0.04 | 0.04 | 76 | 1017.5 |
| 20260903093603 | 52 | 157 | 2.0 | 6.0 | 0.00 | 0.04 | 0.04 | 75 | 1017.3 |
| 20260903092703 | 52 | 157 | 1.0 | 8.0 | 0.00 | 0.04 | 0.04 | 75 | 1017.1 |
| 20260903091803 | 52 | 157 | 0.0 | 3.0 | 0.00 | 0.04 | 0.04 | 74 | 1017.0 |
| 20260903090924 | 52 | 157 | 0.0 | 2.0 | 0.00 | 0.04 | 0.04 | 74 | 1017.0 |
| 20260903090004 | 53 | 157 | 1.0 | 4.0 | 0.00 | 0.04 | 0.04 | 73 | 1016.8 |
| 20260903085403 | 53 | 157 | 1.0 | 5.0 | 0.00 | 0.04 | 0.04 | 73 | 1016.6 |
| 20260903084504 | 53 | 157 | 1.0 | 5.0 | 0.00 | 0.04 | 0.04 | 73 | 1016.5 |
| 20260903083603 | 53 | 157 | 2.0 | 6.0 | 0.00 | 0.04 | 0.04 | 72 | 1016.3 |
| 20260903082704 | 53 | 157 | 2.0 | 5.0 | 0.00 | 0.04 | 0.04 | 72 | 1016.1 |
| 20260903081804 | 54 | 157 | 2.0 | 11.0 | 0.00 | 0.04 | 0.04 | 71 | 1015.9 |
| 20260903080904 | 54 | 157 | 2.0 | 8.0 | 0.00 | 0.04 | 0.04 | 70 | 1015.8 |
| 20260903080004 | 55 | 157 | 2.0 | 9.0 | 0.00 | 0.04 | 0.04 | 69 | 1015.7 |
| 20260903075403 | 55 | 157 | 2.0 | 9.0 | 0.00 | 0.04 | 0.04 | 69 | 1015.7 |
| 20260903074503 | 56 | 157 | 2.0 | 5.0 | 0.00 | 0.04 | 0.04 | 68 | 1015.6 |
| 20260903073603 | 56 | 157 | 3.0 | 10.0 | 0.00 | 0.04 | 0.04 | 67 | 1015.5 |
| 20260903072703 | 56 | 157 | 3.0 | 8.0 | 0.00 | 0.04 | 0.04 | 66 | 1015.4 |
| 20260903071803 | 57 | 157 | 4.0 | 11.0 | 0.00 | 0.04 | 0.04 | 65 | 1015.2 |
| 20260903070903 | 58 | 157 | 3.0 | 9.0 | 0.00 | 0.04 | 0.04 | 64 | 1015.0 |
| 20260903070004 | 58 | 157 | 4.0 | 10.0 | 0.00 | 0.04 | 0.04 | 64 | 1014.8 |
| 20260903065403 | 58 | 157 | 4.0 | 9.0 | 0.00 | 0.04 | 0.04 | 63 | 1014.7 |
| 20260903064503 | 59 | 157 | 4.0 | 13.0 | 0.00 | 0.04 | 0.04 | 63 | 1014.6 |
| 20260903063603 | 59 | 157 | 4.0 | 9.0 | 0.00 | 0.04 | 0.04 | 62 | 1014.6 |
| 20260903062724 | 59 | 157 | 4.0 | 14.0 | 0.00 | 0.04 | 0.04 | 62 | 1014.6 |
| 20260903061803 | 60 | 157 | 4.0 | 11.0 | 0.00 | 0.04 | 0.04 | 59 | 1014.4 |
| 20260903060903 | 61 | 157 | 4.0 | 14.0 | 0.00 | 0.04 | 0.04 | 59 | 1014.3 |
| 20260903060003 | 61 | 157 | 4.0 | 14.0 | 0.00 | 0.04 | 0.04 | 60 | 1014.1 |
| 20260903055403 | 61 | 157 | 4.0 | 14.0 | 0.00 | 0.04 | 0.04 | 61 | 1014.0 |
| 20260903054524 | 61 | 157 | 6.0 | 14.0 | 0.00 | 0.04 | 0.04 | 61 | 1014.0 |
| 20260903053603 | 61 | 157 | 5.0 | 17.0 | 0.00 | 0.04 | 0.04 | 61 | 1013.8 |
| 20260903052703 | 61 | 157 | 5.0 | 15.0 | 0.00 | 0.04 | 0.04 | 62 | 1013.8 |
| 20260903051803 | 61 | 157 | 5.0 | 12.0 | 0.00 | 0.04 | 0.04 | 61 | 1013.6 |
| 20260903050903 | 61 | 157 | 5.0 | 10.0 | 0.00 | 0.04 | 0.04 | 63 | 1013.6 |
| 20260903050003 | 60 | 157 | 6.0 | 16.0 | 0.00 | 0.04 | 0.04 | 63 | 1013.4 |
| 20260903045403 | 60 | 157 | 5.0 | 16.0 | 0.00 | 0.04 | 0.04 | 66 | 1013.5 |
| 20260903044503 | 60 | 157 | 7.0 | 13.0 | 0.00 | 0.04 | 0.04 | 68 | 1013.4 |
| 20260903043603 | 59 | 157 | 7.0 | 16.0 | 0.00 | 0.04 | 0.04 | 70 | 1013.3 |
| 20260903042703 | 59 | 157 | 6.0 | 19.0 | 0.00 | 0.04 | 0.04 | 69 | 1013.2 |
| 20260903041803 | 59 | 157 | 6.0 | 15.0 | 0.00 | 0.04 | 0.04 | 70 | 1013.2 |
| 20260903040924 | 60 | 157 | 5.0 | 14.0 | 0.00 | 0.04 | 0.04 | 69 | 1013.0 |
| 20260903040003 | 59 | 157 | 5.0 | 14.0 | 0.00 | 0.04 | 0.04 | 73 | 1012.8 |
| 20260903035424 | 59 | 157 | 5.0 | 13.0 | 0.00 | 0.04 | 0.04 | 73 | 1012.9 |
| 20260903034503 | 57 | 157 | 5.0 | 16.0 | 0.00 | 0.04 | 0.04 | 78 | 1012.9 |
| 20260903033603 | 56 | 157 | 4.0 | 17.0 | 0.00 | 0.04 | 0.04 | 82 | 1012.7 |
| 20260903032703 | 56 | 157 | 4.0 | 14.0 | 0.00 | 0.04 | 0.04 | 84 | 1012.9 |
| 20260903031803 | 55 | 157 | 3.0 | 11.0 | 0.00 | 0.04 | 0.04 | 85 | 1012.7 |
| 20260903030903 | 55 | 157 | 4.0 | 12.0 | 0.00 | 0.04 | 0.04 | 85 | 1012.8 |
| 20260903030003 | 54 | 157 | 4.0 | 12.0 | 0.00 | 0.04 | 0.04 | 85 | 1012.7 |
| 20260903025424 | 54 | 157 | 5.0 | 15.0 | 0.00 | 0.04 | 0.04 | 85 | 1012.9 |
| 20260903024503 | 54 | 157 | 6.0 | 16.0 | 0.04 | 0.04 | 0.04 | 86 | 1012.7 |
| 20260903023603 | 53 | 157 | 5.0 | 13.0 | 0.04 | 0.04 | 0.04 | 87 | 1012.7 |
| 20260903022703 | 53 | 157 | 5.0 | 14.0 | 0.04 | 0.04 | 0.04 | 87 | 1012.6 |
| 20260903021803 | 54 | 157 | 5.0 | 12.0 | 0.04 | 0.04 | 0.04 | 87 | 1012.6 |
| 20260903020903 | 54 | 157 | 5.0 | 17.0 | 0.04 | 0.04 | 0.04 | 86 | 1012.6 |
| 20260903020003 | 55 | 157 | 4.0 | 15.0 | 0.04 | 0.04 | 0.04 | 84 | 1012.6 |
| 20260903015403 | 56 | 157 | 3.0 | 15.0 | 0.04 | 0.04 | 0.04 | 82 | 1012.4 |
| 20260903014503 | 57 | 157 | 3.0 | 11.0 | 0.00 | 0.00 | 0.00 | 78 | 1012.1 |
| 20260903013603 | 57 | 157 | 6.0 | 11.0 | 0.00 | 0.00 | 0.00 | 76 | 1011.7 |
| 20260903012703 | 57 | 157 | 7.0 | 14.0 | 0.00 | 0.00 | 0.00 | 76 | 1011.8 |
| 20260903011803 | 57 | 157 | 7.0 | 17.0 | 0.00 | 0.00 | 0.00 | 77 | 1012.0 |
| 20260903010903 | 57 | 157 | 5.0 | 15.0 | 0.00 | 0.00 | 0.00 | 77 | 1011.9 |
| 20260903010003 | 57 | 157 | 6.0 | 12.0 | 0.00 | 0.00 | 0.00 | 78 | 1012.0 |
| 20260903005403 | 57 | 157 | 6.0 | 16.0 | 0.00 | 0.00 | 0.00 | 77 | 1011.9 |
| 20260903004503 | 56 | 157 | 6.0 | 19.0 | 0.00 | 0.00 | 0.00 | 77 | 1011.8 |
| 20260903003603 | 55 | 157 | 5.0 | 15.0 | 0.00 | 0.00 | 0.00 | 78 | 1011.8 |
| 20260903002703 | 55 | 157 | 6.0 | 16.0 | 0.00 | 0.00 | 0.00 | 79 | 1011.6 |
| 20260903001803 | 55 | 157 | 5.0 | 18.0 | 0.00 | 0.00 | 0.00 | 77 | 1011.6 |
| 20260903000903 | 55 | 157 | 7.0 | 13.0 | 0.00 | 0.00 | 0.00 | 76 | 1011.3 |
| 20260903000003 | 55 | 157 | 7.0 | 17.0 | 0.00 | 0.00 | 0.00 | 74 | 1011.3 |
| 20260902235403 | 55 | 157 | 7.0 | 19.0 | 0.00 | 0.00 | 0.00 | 74 | 1011.2 |
| 20260902234503 | 56 | 157 | 8.0 | 20.0 | 0.00 | 0.00 | 0.00 | 74 | 1011.1 |
| 20260902233603 | 55 | 157 | 7.0 | 21.0 | 0.00 | 0.00 | 0.00 | 74 | 1011.1 |
| 20260902232703 | 55 | 157 | 8.0 | 15.0 | 0.00 | 0.00 | 0.00 | 74 | 1011.0 |
| 20260902231803 | 55 | 157 | 9.0 | 19.0 | 0.00 | 0.00 | 0.00 | 73 | 1010.8 |
| 20260902230903 | 55 | 157 | 9.0 | 20.0 | 0.00 | 0.00 | 0.00 | 72 | 1010.7 |
| 20260902230003 | 56 | 157 | 9.0 | 19.0 | 0.00 | 0.00 | 0.00 | 72 | 1010.6 |
| 20260902225424 | 56 | 157 | 9.0 | 19.0 | 0.00 | 0.00 | 0.00 | 72 | 1010.6 |
| 20260902224503 | 56 | 157 | 9.0 | 18.0 | 0.00 | 0.00 | 0.00 | 72 | 1010.6 |
| 20260902223624 | 55 | 157 | 9.0 | 19.0 | 0.00 | 0.00 | 0.00 | 73 | 1010.4 |
| 20260902222703 | 54 | 157 | 8.0 | 19.0 | 0.00 | 0.00 | 0.00 | 74 | 1010.5 |
| 20260902221803 | 54 | 157 | 8.0 | 18.0 | 0.00 | 0.00 | 0.00 | 75 | 1010.5 |
| 20260902220903 | 53 | 157 | 6.0 | 16.0 | 0.00 | 0.00 | 0.00 | 75 | 1010.5 |
| 20260902220003 | 53 | 157 | 6.0 | 20.0 | 0.00 | 0.00 | 0.00 | 75 | 1010.3 |
| 20260902215403 | 53 | 157 | 7.0 | 17.0 | 0.00 | 0.00 | 0.00 | 75 | 1010.6 |
| 20260902214503 | 53 | 157 | 5.0 | 17.0 | 0.00 | 0.00 | 0.00 | 75 | 1010.3 |
| 20260902213603 | 52 | 157 | 5.0 | 10.0 | 0.00 | 0.00 | 0.00 | 74 | 1010.2 |
| 20260902212724 | 52 | 157 | 5.0 | 15.0 | 0.00 | 0.00 | 0.00 | 74 | 1010.1 |
| 20260902211803 | 52 | 157 | 6.0 | 11.0 | 0.00 | 0.00 | 0.00 | 74 | 1009.9 |
| 20260902210903 | 52 | 157 | 7.0 | 14.0 | 0.00 | 0.00 | 0.00 | 74 | 1009.6 |
| 20260902210003 | 52 | 157 | 6.0 | 12.0 | 0.00 | 0.00 | 0.00 | 74 | 1009.3 |
| 20260902205424 | 52 | 157 | 7.0 | 16.0 | 0.00 | 0.00 | 0.00 | 73 | 1009.4 |
| 20260902204503 | 52 | 157 | 6.0 | 15.0 | 0.00 | 0.00 | 0.00 | 73 | 1009.4 |
| 20260902203603 | 52 | 157 | 7.0 | 16.0 | 0.00 | 0.00 | 0.00 | 72 | 1009.3 |